Time,TemperatureF,DewpointF,PressureIn,WindDirection,WindDirectionDegrees,WindSpeedMPH,WindSpeedGustMPH,Humidity,HourlyPrecipIn,Conditions,Clouds,dailyrainin,SoftwareType,DateUTC
2013-01-12 00:04:00,44.0,-99.9,30.10,West,278,4.0,6.0,-999,-99.99,,,-99.99,,2013-01-12 05:04:00,
2013-01-12 00:12:00,44.0,-99.9,30.11,West,271,2.0,5.0,-999,-99.99,,,-99.99,,2013-01-12 05:12:00,
2013-01-12 00:22:00,-999.0,-99.9,30.11,West,267,2.0,3.0,-999,-99.99,,,-99.99,,2013-01-12 05:22:00,
2013-01-12 00:32:00,44.0,-99.9,30.10,West,261,1.0,3.0,-999,-99.99,,,-99.99,,2013-01-12 05:32:00,
2013-01-12 00:42:00,-999.0,-99.9,30.10,West,268,1.0,3.0,-999,-99.99,,,-99.99,,2013-01-12 05:42:00,
2013-01-12 00:53:00,44.0,-99.9,30.10,North,-999,-999.0,-999.0,-999,-99.99,,,-99.99,,2013-01-12 05:53:00,
2013-01-12 01:03:00,44.0,-99.9,30.11,WNW,286,2.0,3.0,-999,-99.99,,,-99.99,,2013-01-12 06:03:00,
2013-01-12 01:12:00,-999.0,-99.9,30.10,WNW,294,3.0,3.0,-999,-99.99,,,-99.99,,2013-01-12 06:12:00,
2013-01-12 01:22:00,43.0,-99.9,30.10,North,-999,-999.0,-999.0,-999,-99.99,,,-99.99,,2013-01-12 06:22:00,
2013-01-12 01:33:00,43.0,-99.9,30.10,NW,312,2.0,3.0,-999,-99.99,,,-99.99,,2013-01-12 06:33:00,
2013-01-12 01:43:00,43.0,-99.9,30.10,NNW,328,2.0,3.0,-999,-99.99,,,-99.99,,2013-01-12 06:43:00,
2013-01-12 01:53:00,43.0,-99.9,30.11,North,-999,-999.0,-999.0,-999,-99.99,,,-99.99,,2013-01-12 06:53:00,
2013-01-12 02:02:00,43.0,-99.9,30.11,NW,324,3.0,4.0,-999,-99.99,,,-99.99,,2013-01-12 07:02:00,
2013-01-12 02:12:00,-999.0,-99.9,30.11,NNW,328,1.0,3.0,-999,-99.99,,,-99.99,,2013-01-12 07:12:00,
2013-01-12 02:22:00,-999.0,-99.9,30.11,NNW,346,2.0,4.0,-999,-99.99,,,-99.99,,2013-01-12 07:22:00,
2013-01-12 02:32:00,43.0,-99.9,30.11,NNW,328,2.0,4.0,-999,-99.99,,,-99.99,,2013-01-12 07:32:00,
2013-01-12 02:42:00,-999.0,-99.9,30.11,NNW,333,2.0,3.0,-999,-99.99,,,-99.99,,2013-01-12 07:42:00,
2013-01-12 02:53:00,43.0,-99.9,30.12,North,-999,-999.0,-999.0,-999,-99.99,,,-99.99,,2013-01-12 07:53:00,
2013-01-12 03:02:00,43.0,-99.9,30.13,West,265,1.0,2.0,-999,-99.99,,,-99.99,,2013-01-12 08:02:00,
2013-01-12 03:12:00,43.0,-99.9,30.13,NW,309,2.0,3.0,-999,-99.99,,,-99.99,,2013-01-12 08:12:00,
2013-01-12 03:22:00,-999.0,-99.9,30.12,NW,326,1.0,2.0,-999,-99.99,,,-99.99,,2013-01-12 08:22:00,
2013-01-12 03:32:00,43.0,-99.9,30.12,NW,321,3.0,3.0,-999,-99.99,,,-99.99,,2013-01-12 08:32:00,
2013-01-12 03:42:00,-999.0,-99.9,30.12,NW,314,3.0,4.0,-999,-99.99,,,-99.99,,2013-01-12 08:42:00,
2013-01-12 03:53:00,43.0,-99.9,30.12,North,-999,-999.0,-999.0,-999,-99.99,,,-99.99,,2013-01-12 08:53:00,
2013-01-12 04:02:00,43.0,-99.9,30.12,WNW,297,1.0,2.0,-999,-99.99,,,-99.99,,2013-01-12 09:02:00,
2013-01-12 04:12:00,-999.0,-99.9,30.12,West,279,2.0,2.0,-999,-99.99,,,-99.99,,2013-01-12 09:12:00,
2013-01-12 04:22:00,-999.0,-99.9,30.12,SW,229,2.0,2.0,-999,-99.99,,,-99.99,,2013-01-12 09:22:00,
2013-01-12 04:33:00,42.0,-99.9,30.12,SW,231,1.0,2.0,-999,-99.99,,,-99.99,,2013-01-12 09:33:00,
2013-01-12 04:43:00,42.0,-99.9,30.12,NNW,337,1.0,1.0,-999,-99.99,,,-99.99,,2013-01-12 09:43:00,
2013-01-12 04:53:00,-999.0,-99.9,30.12,North,357,1.0,2.0,-999,-99.99,,,-99.99,,2013-01-12 09:53:00,
2013-01-12 05:02:00,43.0,-99.9,30.11,NNW,327,2.0,2.0,-999,-99.99,,,-99.99,,2013-01-12 10:02:00,
2013-01-12 05:12:00,43.0,-99.9,30.11,NW,316,1.0,2.0,-999,-99.99,,,-99.99,,2013-01-12 10:12:00,
2013-01-12 05:22:00,-999.0,-99.9,30.11,NW,321,1.0,2.0,-999,-99.99,,,-99.99,,2013-01-12 10:22:00,
2013-01-12 05:32:00,43.0,-99.9,30.11,WNW,284,0.0,2.0,-999,-99.99,,,-99.99,,2013-01-12 10:32:00,
2013-01-12 05:43:00,43.0,-99.9,30.11,North,-999,-999.0,-999.0,-999,-99.99,,,-99.99,,2013-01-12 10:43:00,
2013-01-12 05:52:00,-999.0,-99.9,30.12,SW,232,1.0,1.0,-999,-99.99,,,-99.99,,2013-01-12 10:52:00,
2013-01-12 06:02:00,43.0,-99.9,30.12,SSW,207,-999.0,1.0,-999,-99.99,,,-99.99,,2013-01-12 11:02:00,
2013-01-12 06:12:00,43.0,-99.9,30.12,South,179,2.0,2.0,-999,-99.99,,,-99.99,,2013-01-12 11:12:00,
2013-01-12 06:23:00,43.0,-99.9,30.12,North,-999,-999.0,-999.0,-999,-99.99,,,-99.99,,2013-01-12 11:23:00,
2013-01-12 06:33:00,44.0,-99.9,30.13,East,89,1.0,4.0,-999,-99.99,,,-99.99,,2013-01-12 11:33:00,
2013-01-12 06:43:00,43.0,-99.9,30.13,SE,127,2.0,2.0,-999,-99.99,,,-99.99,,2013-01-12 11:43:00,
2013-01-12 06:53:00,43.0,-99.9,30.13,North,-999,-999.0,-999.0,-999,-99.99,,,-99.99,,2013-01-12 11:53:00,
2013-01-12 07:03:00,43.0,-99.9,30.14,South,186,1.0,3.0,-999,-99.99,,,-99.99,,2013-01-12 12:03:00,
2013-01-12 07:12:00,43.0,-99.9,30.14,North,-999,-999.0,-999.0,-999,-99.99,,,-99.99,,2013-01-12 12:12:00,
2013-01-12 07:22:00,43.0,-99.9,30.14,North,-999,-999.0,-999.0,-999,-99.99,,,-99.99,,2013-01-12 12:22:00,
2013-01-12 07:33:00,43.0,-99.9,30.14,ESE,120,1.0,2.0,-999,-99.99,,,-99.99,,2013-01-12 12:33:00,
2013-01-12 07:43:00,43.0,-99.9,30.14,North,-999,-999.0,-999.0,-999,-99.99,,,-99.99,,2013-01-12 12:43:00,
2013-01-12 07:53:00,43.0,-99.9,30.15,North,-999,-999.0,-999.0,-999,-99.99,,,-99.99,,2013-01-12 12:53:00,
2013-01-12 08:03:00,43.0,-99.9,30.16,South,173,3.0,4.0,-999,-99.99,,,-99.99,,2013-01-12 13:03:00,
2013-01-12 08:12:00,43.0,-99.9,30.16,South,169,4.0,4.0,-999,-99.99,,,-99.99,,2013-01-12 13:12:00,
2013-01-12 08:23:00,43.0,-99.9,30.16,North,-999,-999.0,-999.0,-999,-99.99,,,-99.99,,2013-01-12 13:23:00,
2013-01-12 08:33:00,43.0,-99.9,30.16,SE,131,2.0,4.0,-999,-99.99,,,-99.99,,2013-01-12 13:33:00,
2013-01-12 08:43:00,-999.0,-99.9,30.17,South,174,1.0,2.0,-999,-99.99,,,-99.99,,2013-01-12 13:43:00,
2013-01-12 08:53:00,-999.0,-99.9,30.16,SE,127,3.0,4.0,-999,-99.99,,,-99.99,,2013-01-12 13:53:00,
2013-01-12 09:02:00,44.0,-99.9,30.16,SE,144,2.0,6.0,-999,-99.99,,,-99.99,,2013-01-12 14:02:00,
2013-01-12 09:13:00,-999.0,-99.9,30.17,ESE,103,3.0,4.0,-999,-99.99,,,-99.99,,2013-01-12 14:13:00,
2013-01-12 09:22:00,-999.0,-99.9,30.17,ESE,103,3.0,4.0,-999,-99.99,,,-99.99,,2013-01-12 14:22:00,
2013-01-12 09:33:00,44.0,-99.9,30.16,SSE,152,3.0,4.0,-999,-99.99,,,-99.99,,2013-01-12 14:33:00,
2013-01-12 09:43:00,44.0,-99.9,30.16,South,172,4.0,4.0,-999,-99.99,,,-99.99,,2013-01-12 14:43:00,
2013-01-12 09:53:00,44.0,-99.9,30.16,North,-999,-999.0,-999.0,-999,-99.99,,,-99.99,,2013-01-12 14:53:00,
2013-01-12 10:03:00,44.0,-99.9,30.17,WSW,245,3.0,3.0,-999,-99.99,,,-99.99,,2013-01-12 15:03:00,
2013-01-12 10:13:00,-999.0,-99.9,30.16,SW,218,2.0,3.0,-999,-99.99,,,-99.99,,2013-01-12 15:13:00,
2013-01-12 10:23:00,-999.0,-99.9,30.17,WSW,237,3.0,4.0,-999,-99.99,,,-99.99,,2013-01-12 15:23:00,
2013-01-12 10:34:00,-999.0,-99.9,30.17,WSW,237,3.0,4.0,-999,-99.99,,,-99.99,,2013-01-12 15:34:00,
2013-01-12 10:43:00,-999.0,-99.9,30.17,SW,215,2.0,3.0,-999,-99.99,,,-99.99,,2013-01-12 15:43:00,
2013-01-12 10:53:00,45.0,-99.9,30.17,North,-999,-999.0,-999.0,-999,-99.99,,,-99.99,,2013-01-12 15:53:00,
2013-01-12 11:03:00,45.0,-99.9,30.17,North,-999,-999.0,-999.0,-999,-99.99,,,-99.99,,2013-01-12 16:03:00,
2013-01-12 11:13:00,45.0,-99.9,30.17,North,-999,-999.0,-999.0,-999,-99.99,,,-99.99,,2013-01-12 16:13:00,
2013-01-12 11:23:00,45.0,-99.9,30.17,North,-999,-999.0,-999.0,-999,-99.99,,,-99.99,,2013-01-12 16:23:00,
2013-01-12 11:33:00,48.0,-99.9,30.17,WSW,250,-999.0,2.0,-999,-99.99,,,-99.99,,2013-01-12 16:33:00,
2013-01-12 11:43:00,-999.0,-99.9,30.16,WNW,301,0.0,1.0,-999,-99.99,,,-99.99,,2013-01-12 16:43:00,
2013-01-12 11:53:00,46.0,-99.9,30.16,North,-999,-999.0,-999.0,-999,-99.99,,,-99.99,,2013-01-12 16:53:00,
2013-01-12 12:03:00,46.0,-99.9,30.16,North,-999,-999.0,-999.0,-999,-99.99,,,-99.99,,2013-01-12 17:03:00,
2013-01-12 12:13:00,46.0,-99.9,30.16,North,-999,-999.0,-999.0,-999,-99.99,,,-99.99,,2013-01-12 17:13:00,
2013-01-12 12:23:00,46.0,-99.9,30.16,North,-999,-999.0,-999.0,-999,-99.99,,,-99.99,,2013-01-12 17:23:00,
2013-01-12 13:33:00,45.0,-99.9,30.13,South,187,4.0,7.0,-999,-99.99,,,-99.99,,2013-01-12 18:33:00,
2013-01-12 13:43:00,47.0,-99.9,30.13,North,-999,-999.0,-999.0,-999,-99.99,,,-99.99,,2013-01-12 18:43:00,
2013-01-12 13:53:00,-999.0,-99.9,30.13,South,188,6.0,6.0,-999,-99.99,,,-99.99,,2013-01-12 18:53:00,
2013-01-12 14:03:00,47.0,-99.9,30.12,South,176,4.0,5.0,-999,-99.99,,,-99.99,,2013-01-12 19:03:00,
2013-01-12 14:12:00,47.0,-99.9,30.12,North,-999,-999.0,-999.0,-999,-99.99,,,-99.99,,2013-01-12 19:12:00,
2013-01-12 14:23:00,47.0,-99.9,30.12,North,-999,-999.0,-999.0,-999,-99.99,,,-99.99,,2013-01-12 19:23:00,
2013-01-12 14:33:00,47.0,-99.9,30.12,South,191,5.0,6.0,-999,-99.99,,,-99.99,,2013-01-12 19:33:00,
2013-01-12 14:43:00,46.0,-99.9,30.12,North,-999,-999.0,-999.0,-999,-99.99,,,-99.99,,2013-01-12 19:43:00,
2013-01-12 14:53:00,-999.0,-99.9,30.12,South,184,5.0,7.0,-999,-99.99,,,-99.99,,2013-01-12 19:53:00,
2013-01-12 15:03:00,47.0,-99.9,30.12,South,175,6.0,6.0,-999,-99.99,,,-99.99,,2013-01-12 20:03:00,
2013-01-12 15:13:00,46.0,-99.9,30.12,South,177,7.0,7.0,-999,-99.99,,,-99.99,,2013-01-12 20:13:00,
2013-01-12 15:22:00,46.0,-99.9,30.12,North,-999,-999.0,-999.0,-999,-99.99,,,-99.99,,2013-01-12 20:22:00,
2013-01-12 15:33:00,46.0,-99.9,30.12,South,180,9.0,10.0,-999,-99.99,,,-99.99,,2013-01-12 20:33:00,
2013-01-12 15:43:00,47.0,-99.9,30.12,North,-999,-999.0,-999.0,-999,-99.99,,,-99.99,,2013-01-12 20:43:00,
2013-01-12 15:53:00,-999.0,-99.9,30.12,South,171,8.0,10.0,-999,-99.99,,,-99.99,,2013-01-12 20:53:00,
2013-01-12 16:03:00,47.0,-99.9,30.12,South,177,9.0,10.0,-999,-99.99,,,-99.99,,2013-01-12 21:03:00,
2013-01-12 16:12:00,-999.0,-99.9,30.12,South,178,9.0,10.0,-999,-99.99,,,-99.99,,2013-01-12 21:12:00,
2013-01-12 16:22:00,48.0,-99.9,30.13,North,-999,-999.0,-999.0,-999,-99.99,,,-99.99,,2013-01-12 21:22:00,
2013-01-12 16:33:00,46.0,-99.9,30.13,South,176,8.0,9.0,-999,-99.99,,,-99.99,,2013-01-12 21:33:00,
2013-01-12 16:43:00,46.0,-99.9,30.13,North,-999,-999.0,-999.0,-999,-99.99,,,-99.99,,2013-01-12 21:43:00,
2013-01-12 16:53:00,47.0,-99.9,30.14,North,-999,-999.0,-999.0,-999,-99.99,,,-99.99,,2013-01-12 21:53:00,
2013-01-12 17:03:00,47.0,-99.9,30.14,South,170,6.0,7.0,-999,-99.99,,,-99.99,,2013-01-12 22:03:00,
2013-01-12 17:12:00,45.0,-99.9,30.14,South,172,8.0,9.0,-999,-99.99,,,-99.99,,2013-01-12 22:12:00,
2013-01-12 17:23:00,45.0,-99.9,30.14,North,-999,-999.0,-999.0,-999,-99.99,,,-99.99,,2013-01-12 22:23:00,
2013-01-12 17:33:00,45.0,-99.9,30.14,South,188,6.0,8.0,-999,-99.99,,,-99.99,,2013-01-12 22:33:00,
2013-01-12 17:44:00,-999.0,-99.9,30.13,South,181,5.0,6.0,-999,-99.99,,,-99.99,,2013-01-12 22:44:00,
2013-01-12 17:53:00,45.0,-99.9,30.14,North,-999,-999.0,-999.0,-999,-99.99,,,-99.99,,2013-01-12 22:53:00,
2013-01-12 18:03:00,47.0,-99.9,30.15,SSW,192,2.0,5.0,-999,-99.99,,,-99.99,,2013-01-12 23:03:00,
2013-01-12 18:13:00,-999.0,-99.9,30.15,South,171,3.0,4.0,-999,-99.99,,,-99.99,,2013-01-12 23:13:00,
2013-01-12 18:23:00,-999.0,-99.9,30.14,South,173,3.0,3.0,-999,-99.99,,,-99.99,,2013-01-12 23:23:00,
2013-01-12 18:33:00,45.0,-99.9,30.15,South,178,2.0,3.0,-999,-99.99,,,-99.99,,2013-01-12 23:33:00,
2013-01-12 18:43:00,46.0,-99.9,30.15,South,176,4.0,4.0,-999,-99.99,,,-99.99,,2013-01-12 23:43:00,
2013-01-12 18:53:00,45.0,-99.9,30.15,North,-999,-999.0,-999.0,-999,-99.99,,,-99.99,,2013-01-12 23:53:00,
2013-01-12 19:03:00,45.0,-99.9,30.15,South,177,4.0,4.0,-999,-99.99,,,-99.99,,2013-01-13 00:03:00,
2013-01-12 19:12:00,44.0,-99.9,30.14,SSE,163,5.0,6.0,-999,-99.99,,,-99.99,,2013-01-13 00:12:00,
2013-01-12 19:23:00,-999.0,-99.9,30.14,SSE,148,4.0,7.0,-999,-99.99,,,-99.99,,2013-01-13 00:23:00,
2013-01-12 19:33:00,45.0,-99.9,30.14,South,172,5.0,7.0,-999,-99.99,,,-99.99,,2013-01-13 00:33:00,
2013-01-12 19:43:00,-999.0,-99.9,30.13,South,181,6.0,6.0,-999,-99.99,,,-99.99,,2013-01-13 00:43:00,
2013-01-12 19:53:00,-999.0,-99.9,30.13,SSW,193,4.0,5.0,-999,-99.99,,,-99.99,,2013-01-13 00:53:00,
2013-01-12 20:03:00,45.0,-99.9,30.14,SW,214,3.0,5.0,-999,-99.99,,,-99.99,,2013-01-13 01:03:00,
2013-01-12 20:12:00,-999.0,-99.9,30.13,SSW,198,3.0,4.0,-999,-99.99,,,-99.99,,2013-01-13 01:12:00,
2013-01-12 20:23:00,44.0,-99.9,30.13,North,-999,-999.0,-999.0,-999,-99.99,,,-99.99,,2013-01-13 01:23:00,
2013-01-12 20:33:00,45.0,-99.9,30.14,West,271,2.0,4.0,-999,-99.99,,,-99.99,,2013-01-13 01:33:00,
2013-01-12 20:43:00,45.0,-99.9,30.15,WSW,247,2.0,3.0,-999,-99.99,,,-99.99,,2013-01-13 01:43:00,
2013-01-12 20:53:00,45.0,-99.9,30.14,North,-999,-999.0,-999.0,-999,-99.99,,,-99.99,,2013-01-13 01:53:00,
2013-01-12 21:03:00,44.0,-99.9,30.14,SSW,202,3.0,4.0,-999,-99.99,,,-99.99,,2013-01-13 02:03:00,
2013-01-12 21:13:00,45.0,-99.9,30.14,North,-999,-999.0,-999.0,-999,-99.99,,,-99.99,,2013-01-13 02:13:00,
2013-01-12 21:23:00,44.0,-99.9,30.14,North,-999,-999.0,-999.0,-999,-99.99,,,-99.99,,2013-01-13 02:23:00,
2013-01-12 21:33:00,44.0,-99.9,30.13,South,180,4.0,4.0,-999,-99.99,,,-99.99,,2013-01-13 02:33:00,
2013-01-12 21:43:00,44.0,-99.9,30.13,North,-999,-999.0,-999.0,-999,-99.99,,,-99.99,,2013-01-13 02:43:00,
2013-01-12 21:53:00,-999.0,-99.9,30.13,SW,233,4.0,6.0,-999,-99.99,,,-99.99,,2013-01-13 02:53:00,
2013-01-12 22:03:00,44.0,-99.9,30.15,SW,227,3.0,6.0,-999,-99.99,,,-99.99,,2013-01-13 03:03:00,
2013-01-12 22:12:00,44.0,-99.9,30.14,North,-999,-999.0,-999.0,-999,-99.99,,,-99.99,,2013-01-13 03:12:00,
2013-01-12 22:23:00,44.0,-99.9,30.14,North,-999,-999.0,-999.0,-999,-99.99,,,-99.99,,2013-01-13 03:23:00,
2013-01-12 22:33:00,44.0,-99.9,30.14,South,170,4.0,5.0,-999,-99.99,,,-99.99,,2013-01-13 03:33:00,
2013-01-12 22:43:00,43.0,-99.9,30.14,North,-999,-999.0,-999.0,-999,-99.99,,,-99.99,,2013-01-13 03:43:00,
2013-01-12 22:53:00,43.0,-99.9,30.14,North,-999,-999.0,-999.0,-999,-99.99,,,-99.99,,2013-01-13 03:53:00,
2013-01-12 23:03:00,43.0,-99.9,30.13,South,172,6.0,6.0,-999,-99.99,,,-99.99,,2013-01-13 04:03:00,
2013-01-12 23:12:00,44.0,-99.9,30.13,SSW,208,3.0,5.0,-999,-99.99,,,-99.99,,2013-01-13 04:12:00,
2013-01-12 23:23:00,43.0,-99.9,30.13,North,-999,-999.0,-999.0,-999,-99.99,,,-99.99,,2013-01-13 04:23:00,
2013-01-12 23:33:00,43.0,-99.9,30.13,SW,214,3.0,4.0,-999,-99.99,,,-99.99,,2013-01-13 04:33:00,
2013-01-12 23:43:00,43.0,-99.9,30.14,North,-999,-999.0,-999.0,-999,-99.99,,,-99.99,,2013-01-13 04:43:00,
2013-01-12 23:53:00,-999.0,-99.9,30.13,South,177,7.0,7.0,-999,-99.99,,,-99.99,,2013-01-13 04:53:00,